SAUDISAT 4

Satellite information

Favourite Embed

Satellite Type and Status

PAYLOADIN ORBIT

Key statistics

Satellite SAUDISAT 4 at a glance.

Uptime

4099

Days in orbit

Revolutions

≈ 14.8

Per day

Orbit

SSO

Sun Synchronous Orbit

Inclination

97.7

Latest

Satellite identification and parameters

Extended collection of information and parameters for SAUDISAT 4.

Object identification

Identified? True

Debris? False

Object name: SAUDISAT 4

International designator: 2014-033G

Object number (NORAD): 40016

Object ID (CCSDS): 40016

Country: SAUDI ARABIA (SAUD)

Current information (Y/N): Y

RCS size: MEDIUM

Orbital parameters

Period: 97.371 minutes

Inclination: 97.7199 deg

SMA: 7010.998 km

Apoapsis: 663.694 km

Periapsis: 602.032 km

RAAN: 42.6118 deg

Eccentricy: 0.00439751

Argument of periapsis: 272.2304 deg

Mean anomaly: 87.3873 deg

Mean motion: 14.78880241 rev/day

Mean motion (dot): 0.00001044 rev/day2

B* drag term: 0.00014646677 1/REarth

Two-line elements (TLE)

Creation date: Sept. 8, 2025, 3:16 a.m.

Reference frame: TEME

Reference center: EARTH

Epoch: Sept. 7, 2025, 9:55 p.m. UTC

TLE line 0: 0 SAUDISAT 4

TLE line 1: 1 40016U 14033G 25250.91364584 .00001044 00000-0 14647-3 0 9990

TLE line 2: 2 40016 97.7199 42.6118 0043975 272.2304 87.3873 14.78880241604341

Live tracking on map

Real-time ground track for satellite SAUDISAT 4.

In-orbit conjunctions

There are no conjunctions computed for SAUDISAT 4, at the moment. Check back to stay up to date, as we update our databases every day.

Go to all conjunctions

Associated space launch

SAUDISAT 4 was lifted into orbit during the mission ‘Dnepr 1 | Multipayload, 37 satellites.’, on board a Dnepr space rocket.

The launch took place on June 19, 2014, 7:11 p.m. from 370/13.

For more information about the launch, click the button.

Launch to space Dnepr 1 | Multipayload, 37 satellites.
Dnepr 1 | Multipayload, 37 satellites.

Agency: N/A

Status: Launch Successful

Launch date: June 19, 2014, 7:11 p.m. UTC

Rocket: Dnepr

Launch pad: 370/13

Location: Dombarovskiy, Russian Federation

...

Latest news about this satellite

There are no fresh news available about this satellite. Check back as we update our databases every day.


Newsletter sign-up

Weekly statistics, charts and insights to help you stay on top of the space industry.